FW7771 Weather Reports


Display with metric or nautical units.
time (UTC)temp
F
wind
direction
speed
MPH
gust
MPH
rain 1hr
in
rain 24hr
in
rain mn
in
humidity
%
barometer
mb
20260507013114 43 0 0.0 3.0 0.00 0.00 0.00 53 1014.7
20260507011558 45 296 2.0 5.0 0.00 0.00 0.00 52 1014.6
20260507010100 45 302 5.0 10.0 0.00 0.00 0.00 49 1014.7
20260507004557 46 292 9.0 12.0 0.00 0.00 0.00 48 1014.9
20260507003056 46 281 9.0 16.0 0.00 0.00 0.00 47 1015.0
20260507001620 46 277 9.0 14.0 0.00 0.00 0.00 47 1015.0
20260506234558 47 266 8.0 11.0 0.00 0.00 0.00 46 1015.1
20260506233107 47 288 12.0 18.0 0.00 0.00 0.00 47 1015.3
20260506231600 47 271 8.0 17.0 0.00 0.00 0.00 47 1015.4
20260506230059 47 299 14.0 21.0 0.00 0.00 0.00 46 1015.5
20260506224557 47 265 15.0 21.0 0.00 0.00 0.00 46 1015.5
20260506223123 48 261 15.0 21.0 0.00 0.00 0.00 45 1015.6
20260506221603 48 294 15.0 21.0 0.00 0.00 0.00 45 1015.6
20260506220059 47 245 12.0 20.0 0.00 0.00 0.00 46 1015.8
20260506214609 46 240 17.0 23.0 0.00 0.00 0.00 46 1016.0
20260506213059 47 238 15.0 24.0 0.00 0.00 0.00 46 1016.1
20260506211558 47 272 15.0 26.0 0.00 0.00 0.00 47 1016.2
20260506210125 47 256 15.0 20.0 0.00 0.00 0.00 46 1016.2
20260506204558 46 265 15.0 22.0 0.00 0.00 0.00 47 1016.4
20260506203104 46 254 14.0 22.0 0.00 0.00 0.00 47 1016.6
20260506201558 46 256 17.0 23.0 0.00 0.00 0.00 46 1016.7
20260506200150 46 261 12.0 21.0 0.00 0.00 0.00 48 1016.6
20260506194612 46 252 13.0 21.0 0.00 0.00 0.00 48 1016.6
20260506193058 46 261 12.0 24.0 0.00 0.00 0.00 49 1016.7
20260506191600 46 265 15.0 22.0 0.00 0.00 0.00 47 1016.7
20260506190100 46 246 11.0 22.0 0.00 0.00 0.00 48 1016.8
20260506184600 45 289 11.0 23.0 0.00 0.00 0.00 50 1016.9
20260506183059 44 241 17.0 24.0 0.00 0.00 0.00 50 1017.0
20260506181600 43 248 12.0 20.0 0.00 0.00 0.00 52 1017.1
20260506180108 43 247 15.0 21.0 0.00 0.00 0.00 52 1017.2
20260506174559 42 254 15.0 20.0 0.00 0.00 0.00 52 1017.2
20260506173124 42 255 12.0 21.0 0.00 0.00 0.00 55 1017.3
20260506171603 41 254 15.0 21.0 0.00 0.00 0.00 55 1017.5
20260506170059 41 257 15.0 20.0 0.00 0.00 0.00 56 1017.5
20260506164600 41 271 13.0 17.0 0.00 0.00 0.00 57 1017.5
20260506163106 40 289 13.0 18.0 0.00 0.00 0.00 58 1017.6
20260506161559 40 274 13.0 19.0 0.00 0.00 0.00 59 1017.6
20260506160108 40 250 11.0 15.0 0.00 0.00 0.00 61 1017.6
20260506154600 39 247 9.0 14.0 0.00 0.00 0.00 62 1017.6
20260506153057 39 271 6.0 9.0 0.00 0.00 0.00 61 1017.5
20260506151559 39 252 5.0 9.0 0.00 0.00 0.00 61 1017.6
20260506150105 38 290 6.0 10.0 0.00 0.00 0.00 61 1017.6
20260506144600 38 301 6.0 8.0 0.00 0.00 0.00 61 1017.6
20260506143104 38 295 6.0 9.0 0.00 0.00 0.00 62 1017.5
20260506141608 38 296 6.0 9.0 0.00 0.00 0.00 62 1017.6
20260506134620 37 290 3.0 8.0 0.00 0.00 0.00 63 1017.4
20260506133101 37 309 3.0 7.0 0.00 0.00 0.00 65 1017.4
20260506131612 37 256 3.0 7.0 0.00 0.00 0.00 69 1017.3
20260506130100 37 261 3.0 6.0 0.00 0.00 0.00 72 1017.3
20260506124609 36 301 4.0 7.0 0.00 0.00 0.00 72 1017.0
20260506123059 36 283 3.0 6.0 0.00 0.00 0.00 72 1016.8
20260506121608 35 286 2.0 4.0 0.00 0.00 0.00 73 1016.6
20260506114558 35 289 3.0 5.0 0.00 0.00 0.00 74 1016.0
20260506113059 34 292 2.0 5.0 0.00 0.00 0.00 74 1015.8
20260506111618 34 298 3.0 5.0 0.00 0.00 0.00 74 1015.6
20260506110058 34 303 4.0 5.0 0.00 0.00 0.00 74 1015.4
20260506104605 33 300 4.0 7.0 0.00 0.00 0.00 74 1015.4
20260506103107 32 253 2.0 5.0 0.00 0.00 0.00 75 1015.4
20260506101558 31 252 3.0 5.0 0.00 0.00 0.00 75 1015.8
20260506100105 31 255 3.0 6.0 0.00 0.00 0.00 77 1015.8
20260506094559 27 0 0.0 1.0 0.00 0.00 0.00 79 1015.5
20260506093100 27 301 1.0 2.0 0.00 0.00 0.00 78 1015.3
20260506091559 27 0 0.0 2.0 0.00 0.00 0.00 78 1015.0
20260506090058 27 296 0.0 2.0 0.00 0.00 0.00 78 1015.1
20260506084607 26 0 0.0 2.0 0.00 0.00 0.00 77 1015.3
20260506083116 26 0 1.0 5.0 0.00 0.00 0.00 76 1015.3
20260506081559 27 0 0.0 1.0 0.00 0.00 0.00 77 1014.9
20260506073057 30 0 1.0 3.0 0.00 0.00 0.00 70 1015.1
20260506071608 31 301 0.0 2.0 0.00 0.00 0.00 72 1014.7
20260506070126 32 300 2.0 4.0 0.00 0.00 0.00 70 1014.5
20260506061558 28 289 2.0 3.0 0.00 0.00 0.00 73 1014.7
20260506050111 30 293 3.0 4.0 0.00 0.00 0.00 71 1014.5
20260506044602 29 290 1.0 3.0 0.00 0.00 0.00 69 1014.6
20260506043105 32 293 2.0 4.0 0.00 0.00 0.00 64 1014.3
20260506041628 34 284 2.0 5.0 0.00 0.00 0.00 62 1014.2
20260506034603 37 284 6.0 9.0 0.00 0.00 0.00 58 1014.1
20260506033100 37 283 3.0 9.0 0.00 0.00 0.00 57 1014.1
20260506031602 38 287 6.0 9.0 0.00 0.00 0.00 57 1014.0
20260506024607 40 291 7.0 11.0 0.00 0.00 0.00 54 1013.5
20260506023106 41 277 9.0 14.0 0.00 0.00 0.00 52 1013.5
20260506021558 42 277 10.0 14.0 0.00 0.00 0.00 51 1013.3
20260506020111 43 261 10.0 15.0 0.00 0.00 0.00 50 1012.8
20260506014614 43 279 13.0 19.0 0.00 0.00 0.00 49 1012.7